Location: Beaver Brook Trail
(44.0290°N, 71.8137°W)
Time: 01:31:11
(UTC+00:00)

Vanguard 1 Rocket - Pass Details

Date: 15 November 2024
Orbit: 650 x 4218 km, 34.3° (Epoch: 08 December)

Event Time Altitude Azimuth Distance (km) Brightness Sun altitude
Rises 22:29:05 0° 279° (W) 6,618 13.1 -12.4°
Reaches altitude 10° 22:35:33 10° 266° (W) 4,866 12.5 -13.6°
Maximum altitude 22:43:38 20° 226° (SW) 3,109 10.9 -15.0°
Drops below altitude 10° 22:49:08 10° 181° (S) 3,136 10.3 -15.9°
Sets 22:52:10 0° 164° (SSE) 3,727 10.5 -16.5°
